WICT2: Wichita River At Wichita Falls, TX

                                SHEF ID:       WICT2     Wichita Rv at Wichita Falls, TX
STATION TYPE:
Regulating: Stage = 18.50, Flow = 5482

PRECIP STAGE RIV-FLOW WTR-TEMP CONDUCT BAT-LOAD
in ft cfs F umho/cm volt
Ccp-Rev Ccp-Rev Ccp-Rev Ccp-Rev Ccp-Rev Ccp-Rev
(America/Chicago)
05/05 00:00 ---- 2.08 32 74.44 5825 12.05
05/05 01:00 ---- 2.08 32 74.01 5818 12.03
05/05 02:00 ---- 2.08 32 73.51 5833 12.01
05/05 03:00 ---- 2.08 32 73.11 5844 12.00
05/05 04:00 ---- 2.09 33 72.77 5866 12.00
05/05 05:00 ---- 2.08 32 72.46 5869 11.97
05/05 06:00 ---- 2.09 33 72.18 5875 11.90
05/05 07:00 ---- 2.09 33 71.82 5719 11.93
05/05 08:00 ---- 2.08 32 71.62 5808 11.98
05/05 09:00 ---- 2.07 31 71.78 5874 12.06
05/05 10:00 ---- 2.08 32 72.03 5902 12.31
05/05 11:00 ---- 2.06 30 72.45 5892 12.66
05/05 12:00 ---- 2.07 31 73.33 5912 12.69
05/05 13:00 ---- 2.08 32 73.81 5897 12.50
05/05 14:00 ---- 2.09 33 74.75 5883 12.43
05/05 15:00 ---- 2.09 33 75.04 5861 12.42
05/05 16:00 ---- 2.08 32 75.42 5839 12.40
05/05 17:00 ---- 2.09 33 75.70 5812 12.31
05/05 18:00 ---- 2.07 31 75.18 5707 12.30
05/05 19:00 ---- 2.07 31 74.23 5677 12.19
05/05 20:00 ---- 2.09 33 73.51 5622 12.11
05/05 21:00 ---- 2.08 32 72.64 5550 12.08
05/05 22:00 ---- 2.08 32 71.67 5456 12.07
05/05 23:00 ---- ---- ---- ---- ---- ----
Data processed at Wed 06May2026 03:58 GMT

NOTICE: If you are parsing this page

Please convert to using our Data API. Starting early 2026 we will be migrating to: https://water.usace.army.mil with modern pages rendered in JavaScript. When this migration completes you will no longer be able to scrape this page! CWMSDataAPI (CDA)

Timeseries IDs (TSIDs)

TSIDs used from left to right in the data table
WFAL.Precip-Inc.Total.1Hour.1Hour.Ccp-Rev
WFAL.Stage.Inst.1Hour.0.Ccp-Rev
WFAL.Flow.Inst.1Hour.0.Ccp-Rev
WFAL.Temp-Water.Inst.1Hour.0.Ccp-Rev
WFAL.Cond-Water.Inst.1Hour.0.Ccp-Rev
WFAL.Volt-Battery Load.Inst.1Hour.0.Ccp-Rev

                            

All information presented herein is the property of the government of the United States of America and may be revised or deleted at any time without prior notice. Dissemination of this information without the expressed written consent of the Public Affairs Office, Tulsa District U.S. Army Corps of Engineers is strictly prohibited. These data are gathered electronically and, as presented, have NOT undergone any form of quality control. These data are NOT guaranteed to be valid or correct.